Find STARLINK-37814

NORAD ID: 799500927 Int'l Des: 2026-130E Constellation: starlink operational

Current View

Loading 3D Globe...

About STARLINK-37814

STARLINK-37814 (NORAD 799500927) is a starlink constellation satellite launched Jun 4, 2026

About STARLINK-37814

Description loading...

Upcoming Passes

Passes for default location (London). Set your location on the main map for personalized predictions.

Altitude History

Loading altitude history...

Two-Line Element Set

1 99999C 2026130E 26163.06923610 .00034293 00000-0 531310-5 0 1636
2 99999 97.2797 182.7827 0010883 273.4853 232.7535 16.04040818 15
Epoch: Jun 12, 2026 • Age: 5 hours

Current Status

Altitude 268.7 km
Velocity 7.75 km/s
Sub-Earth Point -18.80°S, 4.34°E
Launch Date Jun 4, 2026
Age 7 days
Type internet

Most Searched